Content
SEND FEEDBACK

Daily
Averages
Monthly
Summary
United States of America

WILMINGTON, NORTH CAROLINA


Home > North America > United States > North Carolina
Elevation: 72 feet     Latitude: 34 16N     Longitude: 077 54W

WEATHER
 
SELECT A DAY
Number of Records: 214,110;   Date Range: 1/1/95 - 12/19/14
 
SHARE

PRINT THIS DATA

[ ← Previous Day ]
WEATHER ALMANAC - JANUARY 3, 2014
[ Next Day → ]
[ °C ]   °F
Weather ElementAverageHighLow
Temperature36.5 °F51.1 °F (12:53 am)26.1 °F (11:53 pm)
Dewpoint19.2 °F45 °F (12:53 am)10.9 °F (9:53 am)
Humidity51.2 %80 % (12:53 am)34 % (2:53 pm)
Barometer30.15 in30.46 in (9:53 pm)29.65 in (12:53 am)
Wind Speed14.6 mph26.5 mph (7:53 am)
Wind Gust36.8 mph (6:53 am)
Weather ElementAverage
Visibility10 mi
Wind DirectionWNW (280.4 °)

Weather ElementTotal
Precipitation---
Heating Degree Days26.4 (Base 65)
Averaged from 25 records on January 3, 2014
WEATHER CONDITIONS BREAKOUT
WIND DIRECTION BREAKOUT
WEATHER BY HOUR - JANUARY 3, 2014
[ °C ]   °F
Local TimeTemperatureDewpointHumidityBarometerVisibilityWind DirectionWind SpeedGust SpeedPrecipitationEventsConditions
12:53 AM51.1 °F45.0 °F80 %29.65 in10.0 miWNW (290°)19.6 mph25.3 mph0.00 inMostly Cloudy
1:53 AM50.0 °F43.0 °F77 %29.70 in10.0 miWNW (290°)18.4 mph24.2 mphOvercast
2:39 AM48.2 °F37.4 °F66 %29.73 in10.0 miNW (310°)23.0 mph31.1 mphOvercast
2:53 AM46.9 °F37.0 °F68 %29.75 in10.0 miWNW (300°)16.1 mph26.5 mphOvercast
3:53 AM45.0 °F34.0 °F65 %29.80 in10.0 miWNW (300°)11.5 mph23.0 mphOvercast
4:53 AM43.0 °F28.0 °F56 %29.85 in10.0 miWNW (300°)20.7 mph27.6 mphOvercast
5:53 AM37.0 °F21.0 °F52 %29.93 in10.0 miWNW (300°)23.0 mph33.4 mphPartly Cloudy
6:53 AM33.1 °F17.1 °F52 %30.01 in10.0 miNW (310°)23.0 mph36.8 mphClear
7:53 AM32.0 °F14.0 °F48 %30.08 in10.0 miNW (320°)26.5 mph32.2 mphClear
8:53 AM32.0 °F12.0 °F44 %30.14 in10.0 miNW (310°)20.7 mph26.5 mphClear
9:53 AM33.1 °F10.9 °F40 %30.19 in10.0 miNNW (340°)23.0 mph31.1 mphClear
10:53 AM34.0 °F10.9 °F38 %30.21 in10.0 miNNW (340°)19.6 mph31.1 mphClear
11:53 AM36.0 °F12.0 °F37 %30.22 in10.0 miNorth (350°)16.1 mph27.6 mphClear
12:53 PM37.9 °F12.0 °F35 %30.24 in10.0 miNNW (340°)17.3 mph31.1 mphClear
1:53 PM37.9 °F12.0 °F35 %30.25 in10.0 miNorth (360°)18.4 mph27.6 mphClear
2:53 PM39.0 °F12.9 °F34 %30.27 in10.0 miNorth (360°)15.0 mph19.6 mphClear
3:53 PM37.9 °F12.0 °F35 %30.31 in10.0 miNorth (360°)15.0 mph20.7 mphClear
4:53 PM36.0 °F10.9 °F36 %30.34 in10.0 miNorth (350°)10.4 mphClear
5:53 PM33.1 °F12.0 °F42 %30.37 in10.0 miNNW (340°)5.8 mphClear
6:53 PM32.0 °F12.9 °F45 %30.41 in10.0 miNorth (350°)3.5 mphClear
7:53 PM30.0 °F12.9 °F49 %30.44 in10.0 miNorth (360°)4.6 mphClear
8:53 PM28.0 °F16.0 °F61 %30.45 in10.0 miCalmClear
9:53 PM27.0 °F16.0 °F63 %30.46 in10.0 miNNE (30°)4.6 mphClear
10:53 PM27.0 °F15.1 °F61 %30.46 in10.0 miNE (50°)5.8 mphClear
11:53 PM26.1 °F14.0 °F60 %30.46 in10.0 miNE (50°)4.6 mphClear
Hourly data recorded from KILM, located miles away from Wilmington, North Carolina







STORIES FROM OUR PARTNERS